GW1094 Weather Reports


Display with metric or nautical units.
time (UTC)temp
F
wind
direction
speed
MPH
gust
MPH
rain 1hr
in
rain 24hr
in
rain mn
in
humidity
%
barometer
mb
20260510225444 46 330 1.0 1.0 0.00 0.00 0.00 78 4106.2
20260510224939 46 330 0.0 0.0 0.00 0.00 0.00 76 4105.9
20260510224436 47 328 1.0 1.0 0.00 0.00 0.00 76 4105.9
20260510223932 48 326 0.0 1.0 0.00 0.00 0.00 76 4105.9
20260510223430 48 329 0.0 0.0 0.00 0.00 0.00 75 4105.9
20260510222927 48 328 0.0 0.0 0.00 0.00 0.00 74 4105.9
20260510222425 48 332 0.0 1.0 0.00 0.00 0.00 73 4105.9
20260510221920 48 296 0.0 0.0 0.00 0.00 0.00 74 4105.9
20260510221417 48 312 1.0 1.0 0.00 0.00 0.00 74 4105.9
20260510220913 48 304 1.0 2.0 0.00 0.00 0.00 73 4105.9
20260510220409 48 261 1.0 2.0 0.00 0.00 0.00 73 4105.6
20260510215905 48 291 1.0 1.0 0.00 0.00 0.00 74 4105.6
20260510215403 49 283 1.0 2.0 0.00 0.00 0.00 73 4105.6
20260510214901 49 353 1.0 1.0 0.00 0.00 0.00 72 4105.6
20260510214358 48 22 0.0 1.0 0.00 0.00 0.00 74 4105.6
20260510213854 48 355 1.0 1.0 0.00 0.00 0.00 74 4105.6
20260510213350 48 348 1.0 1.0 0.00 0.00 0.00 72 4105.6
20260510212847 48 35 2.0 2.0 0.00 0.00 0.00 73 4105.2
20260510212344 48 8 1.0 1.0 0.00 0.00 0.00 75 4105.6
20260510211841 50 81 1.0 1.0 0.00 0.00 0.00 74 4105.6
20260510211338 51 83 0.0 0.0 0.00 0.00 0.00 74 4105.6
20260510210833 49 14 0.0 0.0 0.00 0.00 0.00 75 4105.2
20260510210328 48 8 1.0 1.0 0.00 0.00 0.00 74 4104.9
20260510205822 47 15 1.0 1.0 0.00 0.00 0.00 74 4104.9
20260510205317 47 4 1.0 2.0 0.00 0.00 0.00 73 4104.9
20260510204814 47 345 3.0 3.0 0.00 0.00 0.00 72 4105.2
20260510204310 48 3 1.0 2.0 0.00 0.00 0.00 75 4105.2
20260510203807 48 346 0.0 0.0 0.00 0.00 0.00 75 4104.9
20260510203305 48 359 2.0 2.0 0.00 0.00 0.00 75 4104.9
20260510202804 49 21 1.0 1.0 0.00 0.00 0.00 73 4104.9
20260510202300 49 5 1.0 1.0 0.00 0.00 0.00 74 4104.9
20260510201757 49 357 1.0 1.0 0.00 0.00 0.00 74 4104.9
20260510201254 49 25 0.0 0.0 0.00 0.00 0.00 75 4104.9
20260510200751 49 27 0.0 0.0 0.00 0.00 0.00 76 4104.9
20260510200248 50 26 1.0 2.0 0.00 0.00 0.00 72 4104.9
20260510195745 50 12 1.0 1.0 0.00 0.00 0.00 71 4104.9
20260510195242 49 8 1.0 1.0 0.00 0.00 0.00 73 4104.4
20260510194740 49 10 0.0 1.0 0.00 0.00 0.00 73 4104.9
20260510194238 49 34 1.0 1.0 0.00 0.00 0.00 72 4104.9
20260510193734 48 36 1.0 2.0 0.00 0.00 0.00 73 4104.4
20260510193228 48 36 1.0 2.0 0.00 0.00 0.00 73 4104.4
20260510192724 48 52 0.0 1.0 0.00 0.00 0.00 73 4104.4
20260510192220 49 50 1.0 2.0 0.00 0.00 0.00 76 4104.4
20260510191716 49 56 0.0 1.0 0.00 0.00 0.00 77 4104.4
20260510191213 49 55 1.0 2.0 0.00 0.00 0.00 74 4104.4
20260510190710 49 34 1.0 1.0 0.00 0.00 0.00 74 4104.1
20260510190207 50 12 1.0 1.0 0.00 0.00 0.00 75 4104.1
20260510185704 50 66 1.0 1.0 0.00 0.00 0.00 75 4104.1
20260510185202 51 67 1.0 1.0 0.00 0.00 0.00 74 4104.1
20260510184658 51 68 1.0 1.0 0.00 0.00 0.00 74 4103.8
20260510184155 51 71 1.0 2.0 0.00 0.00 0.00 71 4103.8
20260510183650 52 73 1.0 2.0 0.00 0.00 0.00 72 4103.8
20260510183145 52 74 0.0 0.0 0.00 0.00 0.00 74 4103.4
20260510182642 52 77 0.0 0.0 0.00 0.00 0.00 72 4103.4
20260510182137 52 77 0.0 0.0 0.00 0.00 0.00 71 4103.4
20260510181635 52 95 0.0 1.0 0.00 0.00 0.00 75 4103.4
20260510181131 51 96 1.0 1.0 0.00 0.00 0.00 75 4103.4
20260510180627 51 91 0.0 1.0 0.00 0.00 0.00 73 4103.4
20260510180125 51 77 1.0 1.0 0.00 0.00 0.00 75 4103.4
20260510175621 51 79 0.0 1.0 0.00 0.00 0.00 75 4103.1
20260510175116 51 80 0.0 0.0 0.00 0.00 0.00 73 4103.1
20260510174615 51 145 0.0 0.0 0.00 0.00 0.00 73 4103.4
20260510174112 52 141 0.0 0.0 0.00 0.00 0.00 73 4103.1
20260510173607 52 118 0.0 1.0 0.00 0.00 0.00 75 4103.1
20260510173104 51 118 0.0 0.0 0.00 0.00 0.00 76 4103.1
20260510172600 51 51 1.0 1.0 0.00 0.00 0.00 75 4103.1
20260510172056 51 83 0.0 1.0 0.00 0.00 0.00 74 4103.4
20260510171553 51 83 0.0 0.0 0.00 0.00 0.00 76 4103.1
20260510171050 51 71 0.0 0.0 0.00 0.00 0.00 76 4103.4
20260510170546 51 68 0.0 0.0 0.00 0.00 0.00 77 4103.4
20260510170043 50 79 0.0 0.0 0.00 0.00 0.00 77 4103.4
20260510165538 50 80 0.0 1.0 0.00 0.00 0.00 75 4103.4
20260510165035 51 87 0.0 0.0 0.00 0.00 0.00 75 4103.1
20260510164532 52 127 1.0 1.0 0.00 0.00 0.00 74 4103.1
20260510164028 53 135 0.0 0.0 0.00 0.00 0.00 74 4103.1
20260510163518 52 138 0.0 0.0 0.00 0.00 0.00 76 4102.7
20260510163015 52 133 0.0 0.0 0.00 0.00 0.00 76 4103.1
20260510162510 53 125 0.0 1.0 0.00 0.00 0.00 75 4103.1
20260510162007 53 109 0.0 0.0 0.00 0.00 0.00 77 4103.1
20260510161503 53 103 0.0 1.0 0.00 0.00 0.00 75 4103.1
20260510160959 52 111 0.0 0.0 0.00 0.00 0.00 77 4102.7
20260510160451 51 99 1.0 1.0 0.00 0.00 0.00 78 4102.7
20260510155948 49 93 1.0 2.0 0.00 0.00 0.00 79 4103.1
20260510155440 50 160 1.0 2.0 0.00 0.00 0.00 79 4102.7
20260510154936 50 68 3.0 3.0 0.00 0.00 0.00 78 4102.7
20260510154432 49 108 1.0 1.0 0.00 0.00 0.00 82 4102.4
20260510153926 49 74 1.0 2.0 0.00 0.00 0.00 81 4102.4
20260510153423 48 78 1.0 1.0 0.00 0.00 0.00 81 4102.4
20260510152919 48 93 1.0 1.0 0.00 0.00 0.00 81 4102.4
20260510152417 47 83 1.0 2.0 0.00 0.00 0.00 81 4102.4
20260510151913 47 53 0.0 0.0 0.00 0.00 0.00 80 4102.1
20260510151411 47 60 1.0 1.0 0.00 0.00 0.00 79 4102.4
20260510150907 47 153 1.0 1.0 0.00 0.00 0.00 80 4102.4
20260510150403 46 333 1.0 1.0 0.00 0.00 0.00 80 4102.4
20260510145859 46 50 0.0 1.0 0.00 0.00 0.00 81 4102.1
20260510145355 47 289 1.0 1.0 0.00 0.00 0.00 79 4102.4
20260510144851 47 94 1.0 1.0 0.00 0.00 0.00 79 4102.4
20260510144348 47 337 2.0 3.0 0.00 0.00 0.00 80 4102.1
20260510143843 48 134 0.0 1.0 0.00 0.00 0.00 80 4102.1
20260510143339 48 87 0.0 1.0 0.00 0.00 0.00 78 4102.1
20260510142837 48 81 0.0 0.0 0.00 0.00 0.00 80 4102.1
20260510142333 48 97 0.0 0.0 0.00 0.00 0.00 80 4102.1
20260510141830 48 84 0.0 0.0 0.00 0.00 0.00 80 4102.1
20260510141328 48 83 0.0 1.0 0.00 0.00 0.00 81 4102.1
20260510140825 47 83 0.0 0.0 0.00 0.00 0.00 81 4102.1
20260510140320 47 81 1.0 1.0 0.00 0.00 0.00 81 4102.1
20260510135814 47 81 0.0 0.0 0.00 0.00 0.00 82 4102.1
20260510135310 46 81 1.0 1.0 0.00 0.00 0.00 82 4102.1
20260510134808 46 82 0.0 1.0 0.00 0.00 0.00 83 4102.1
20260510134304 46 82 0.0 0.0 0.00 0.00 0.00 83 4102.1
20260510133800 45 82 0.0 0.0 0.00 0.00 0.00 82 4102.1
20260510133256 45 81 0.0 0.0 0.00 0.00 0.00 83 4102.1
20260510132752 45 81 1.0 1.0 0.00 0.00 0.00 84 4101.7
20260510132251 45 84 0.0 1.0 0.00 0.00 0.00 84 4101.7
20260510131747 44 83 2.0 2.0 0.00 0.00 0.00 84 4101.7
20260510131245 44 85 0.0 1.0 0.00 0.00 0.00 83 4101.7
20260510130741 44 85 1.0 2.0 0.00 0.00 0.00 84 4101.7
20260510130238 43 93 0.0 1.0 0.00 0.00 0.00 84 4101.4
20260510125734 43 77 0.0 0.0 0.00 0.00 0.00 84 4101.4
20260510125230 42 76 0.0 1.0 0.00 0.00 0.00 85 4101.4
20260510124727 42 77 0.0 0.0 0.00 0.00 0.00 85 4101.4
20260510124225 41 80 1.0 2.0 0.00 0.00 0.00 86 4101.4
20260510123720 41 85 0.0 0.0 0.00 0.00 0.00 87 4101.4
20260510123216 41 96 0.0 1.0 0.00 0.00 0.00 87 4101.4
20260510122712 41 86 1.0 1.0 0.00 0.00 0.00 86 4101.1
20260510122209 41 102 0.0 0.0 0.00 0.00 0.00 86 4101.4
20260510121705 41 64 0.0 0.0 0.00 0.00 0.00 86 4101.1
20260510121203 41 71 1.0 1.0 0.00 0.00 0.00 86 4101.1
20260510120659 40 340 1.0 2.0 0.00 0.00 0.00 86 4101.1
20260510120155 40 55 1.0 2.0 0.00 0.00 0.00 87 4101.1
20260510115646 40 73 2.0 2.0 0.00 0.00 0.00 88 4101.1
20260510115144 39 68 0.0 0.0 0.00 0.00 0.00 89 4101.1
20260510114640 39 68 0.0 1.0 0.00 0.00 0.00 89 4100.7
20260510114136 39 67 0.0 1.0 0.00 0.00 0.00 89 4101.1
20260510113631 39 63 1.0 1.0 0.00 0.00 0.00 89 4100.7
20260510113129 39 65 2.0 2.0 0.00 0.00 0.00 89 4101.1
20260510112625 39 80 2.0 2.0 0.00 0.00 0.00 89 4100.7
20260510112122 39 80 1.0 1.0 0.00 0.00 0.00 89 4100.4
20260510111618 39 80 1.0 1.0 0.00 0.00 0.00 90 4100.4
20260510111114 39 81 0.0 1.0 0.00 0.00 0.00 90 4100.0
20260510110610 38 82 1.0 1.0 0.00 0.00 0.00 89 4100.0
20260510110108 38 85 1.0 2.0 0.00 0.00 0.00 87 4100.0
20260510105603 38 69 1.0 2.0 0.00 0.00 0.00 86 4100.0
20260510105057 38 67 1.0 2.0 0.00 0.00 0.00 87 4100.0
20260510104555 38 67 0.0 1.0 0.00 0.00 0.00 88 4099.7
20260510104051 37 80 1.0 1.0 0.00 0.00 0.00 87 4099.7
20260510103548 37 73 1.0 1.0 0.00 0.00 0.00 88 4099.4
20260510103044 37 69 0.0 0.0 0.00 0.00 0.00 89 4099.7
20260510102540 38 73 0.0 0.0 0.00 0.00 0.00 89 4099.4
20260510102036 38 79 0.0 0.0 0.00 0.00 0.00 90 4099.4
20260510101534 38 72 1.0 2.0 0.00 0.00 0.00 90 4099.4
20260510101032 38 63 1.0 1.0 0.00 0.00 0.00 90 4099.4
20260510100528 38 61 1.0 2.0 0.00 0.00 0.00 91 4099.4
20260510100025 38 67 1.0 2.0 0.00 0.00 0.00 91 4099.0
20260510095521 38 83 2.0 3.0 0.00 0.00 0.00 92 4099.4
20260510095020 38 69 1.0 2.0 0.00 0.00 0.00 93 4099.0
20260510094515 38 60 2.0 2.0 0.00 0.00 0.00 93 4099.0
20260510094011 38 101 0.0 1.0 0.00 0.00 0.00 93 4099.0
20260510093507 38 85 0.0 0.0 0.00 0.00 0.00 92 4098.7
20260510093004 39 69 1.0 2.0 0.00 0.00 0.00 92 4098.7
20260510092501 39 92 1.0 1.0 0.00 0.00 0.00 92 4098.7
20260510092000 39 88 0.0 1.0 0.00 0.00 0.00 93 4098.7
20260510091457 39 54 1.0 1.0 0.00 0.00 0.00 92 4098.7
20260510090953 40 75 0.0 0.0 0.00 0.00 0.00 93 4098.7
20260510090451 40 74 0.0 1.0 0.00 0.00 0.00 92 4098.7
20260510085946 40 76 1.0 1.0 0.00 0.00 0.00 92 4098.3
20260510085441 40 68 1.0 1.0 0.00 0.00 0.00 92 4098.7
20260510084937 40 61 1.0 1.0 0.00 0.00 0.00 91 4098.7
20260510084434 39 87 0.0 1.0 0.00 0.00 0.00 91 4098.7
20260510083931 39 77 1.0 2.0 0.00 0.00 0.00 93 4098.0
20260510083427 39 97 1.0 2.0 0.00 0.00 0.00 93 4098.3
20260510082923 39 69 0.0 1.0 0.00 0.00 0.00 92 4098.3
20260510082421 39 65 0.0 0.0 0.00 0.00 0.00 91 4098.3
20260510081919 39 84 0.0 0.0 0.00 0.00 0.00 90 4098.0
20260510081415 39 75 1.0 1.0 0.00 0.00 0.00 91 4098.0
20260510080912 39 78 0.0 1.0 0.00 0.00 0.00 91 4098.0
20260510080411 39 49 1.0 2.0 0.00 0.00 0.00 91 4097.7
20260510075908 39 70 2.0 3.0 0.00 0.00 0.00 91 4098.0
20260510075406 39 92 1.0 1.0 0.00 0.00 0.00 93 4098.0
20260510074903 39 17 2.0 2.0 0.00 0.00 0.00 96 4097.7
20260510074400 39 46 2.0 2.0 0.00 0.00 0.00 97 4097.7
20260510073856 39 47 1.0 1.0 0.00 0.00 0.00 97 4097.7
20260510073352 39 48 0.0 1.0 0.00 0.00 0.00 97 4097.3
20260510072848 39 48 0.0 0.0 0.00 0.00 0.00 97 4097.3
20260510072345 39 48 0.0 0.0 0.00 0.00 0.00 97 4097.0
20260510071841 39 48 0.0 1.0 0.00 0.00 0.00 97 4097.3
20260510071337 39 47 1.0 1.0 0.00 0.00 0.00 97 4097.3
20260510070836 39 47 1.0 1.0 0.00 0.00 0.00 97 4097.3
20260510070332 39 40 1.0 2.0 0.00 0.00 0.00 98 4097.0
20260510065827 38 72 0.0 0.0 0.00 0.00 0.00 97 4097.0
20260510065325 39 72 0.0 1.0 0.00 0.00 0.00 97 4097.0
20260510064821 39 74 1.0 1.0 0.00 0.00 0.00 97 4097.0
20260510064319 39 74 1.0 2.0 0.00 0.00 0.00 97 4097.0
20260510063815 39 75 1.0 1.0 0.00 0.00 0.00 97 4097.0
20260510063311 39 81 0.0 1.0 0.00 0.00 0.00 97 4097.0
20260510062808 39 87 0.0 0.0 0.00 0.00 0.00 97 4097.0
20260510062306 39 89 0.0 1.0 0.00 0.00 0.00 96 4097.0
20260510061759 39 91 0.0 1.0 0.00 0.00 0.00 94 4097.3
20260510061257 39 94 0.0 0.0 0.00 0.00 0.00 92 4097.0
20260510060752 39 100 0.0 0.0 0.00 0.00 0.00 92 4097.0
20260510060250 39 69 0.0 0.0 0.00 0.00 0.00 92 4097.0
20260510055746 39 63 1.0 2.0 0.00 0.00 0.00 93 4097.0
20260510055245 39 72 0.0 1.0 0.00 0.00 0.00 94 4096.5
20260510054744 39 68 1.0 2.0 0.00 0.00 0.00 95 4096.5
20260510054241 39 75 0.0 0.0 0.00 0.00 0.00 94 4096.5
20260510053740 39 73 1.0 1.0 0.00 0.00 0.00 94 4097.0
20260510053237 39 71 0.0 1.0 0.00 0.00 0.00 93 4097.0
20260510052732 39 81 0.0 0.0 0.00 0.00 0.00 94 4097.0
20260510052228 39 86 0.0 0.0 0.00 0.00 0.00 93 4097.0
20260510051724 39 88 0.0 0.0 0.00 0.00 0.00 91 4097.0
20260510051221 39 91 0.0 0.0 0.00 0.00 0.00 90 4096.5
20260510050718 40 80 0.0 1.0 0.00 0.00 0.00 90 4096.5
20260510050216 40 78 1.0 1.0 0.00 0.00 0.00 90 4097.0
20260510045712 40 73 2.0 3.0 0.00 0.00 0.00 89 4096.5
20260510045209 40 92 1.0 1.0 0.00 0.00 0.00 89 4096.5
20260510044705 40 100 0.0 0.0 0.00 0.00 0.00 88 4096.2
20260510044203 40 68 0.0 1.0 0.00 0.00 0.00 87 4096.5
20260510043658 40 73 0.0 1.0 0.00 0.00 0.00 88 4096.5
20260510043155 40 32 1.0 2.0 0.00 0.00 0.00 88 4096.2
20260510042652 40 67 2.0 2.0 0.00 0.00 0.00 88 4096.2
20260510042148 40 5 2.0 2.0 0.00 0.00 0.00 88 4096.2
20260510041646 40 77 2.0 2.0 0.00 0.00 0.00 87 4095.9
20260510041143 41 61 0.0 1.0 0.00 0.00 0.00 86 4096.2
20260510040640 41 66 1.0 1.0 0.00 0.00 0.00 86 4096.2
20260510040136 41 74 0.0 1.0 0.00 0.00 0.00 84 4096.2
20260510035632 41 66 0.0 1.0 0.00 0.00 0.00 84 4096.2
20260510035127 41 1 3.0 3.0 0.00 0.00 0.00 83 4095.9
20260510034624 41 66 1.0 2.0 0.00 0.00 0.00 83 4095.9
20260510034121 41 335 2.0 3.0 0.00 0.00 0.00 84 4095.9
20260510033618 41 70 1.0 1.0 0.00 0.00 0.00 82 4095.9
20260510033116 41 86 1.0 2.0 0.00 0.00 0.00 82 4095.9
20260510032612 41 86 1.0 1.0 0.00 0.00 0.00 82 4095.9
20260510032107 41 73 1.0 2.0 0.00 0.00 0.00 82 4095.5
20260510031602 41 57 0.0 0.0 0.00 0.00 0.00 82 4095.9
20260510031059 41 86 0.0 0.0 0.00 0.00 0.00 83 4095.5
20260510030554 41 113 2.0 2.0 0.00 0.00 0.00 82 4095.5
20260510030052 41 78 0.0 1.0 0.00 0.00 0.00 81 4095.9
20260510025549 41 80 2.0 5.0 0.00 0.00 0.00 81 4095.9
20260510025046 41 85 0.0 0.0 0.00 0.00 0.00 81 4095.5
20260510024543 41 115 1.0 2.0 0.00 0.00 0.00 81 4095.5
20260510024039 42 28 3.0 5.0 0.00 0.00 0.00 80 4095.5
20260510023535 42 78 1.0 1.0 0.00 0.00 0.00 80 4095.5
20260510023032 42 87 3.0 3.0 0.00 0.00 0.00 80 4095.5
20260510022532 42 52 2.0 2.0 0.00 0.00 0.00 80 4095.2
20260510022026 42 99 2.0 2.0 0.00 0.00 0.00 79 4095.2
20260510021523 42 83 1.0 2.0 0.00 0.00 0.00 80 4094.9
20260510021020 41 106 1.0 1.0 0.00 0.00 0.00 84 4094.9
20260510020515 41 71 3.0 3.0 0.00 0.00 0.00 87 4095.2
20260510020011 42 69 1.0 2.0 0.00 0.00 0.00 86 4094.9
20260510015506 42 80 1.0 1.0 0.00 0.00 0.00 85 4094.9
20260510015003 42 81 0.0 0.0 0.00 0.00 0.00 85 4094.5
20260510014500 42 82 0.0 0.0 0.00 0.00 0.00 83 4094.5
20260510013956 42 76 1.0 1.0 0.00 0.00 0.00 81 4094.5
20260510013450 43 343 0.0 0.0 0.00 0.00 0.00 80 4094.2
20260510012947 43 89 0.0 1.0 0.00 0.00 0.00 81 4094.2
20260510012442 43 70 2.0 3.0 0.00 0.00 0.00 81 4094.2
20260510011937 43 86 1.0 2.0 0.00 0.00 0.00 82 4093.8
20260510011432 43 99 1.0 2.0 0.00 0.00 0.00 81 4093.8
20260510010928 44 83 1.0 1.0 0.00 0.00 0.00 80 4093.8
20260510010426 44 78 1.0 1.0 0.00 0.00 0.00 80 4093.8
20260510005922 44 70 3.0 3.0 0.00 0.00 0.00 79 4093.5
20260510005418 44 61 0.0 1.0 0.00 0.00 0.00 80 4093.8
20260510004915 44 93 2.0 3.0 0.00 0.00 0.00 79 4093.5
20260510004413 44 77 2.0 3.0 0.00 0.00 0.00 77 4093.2
20260510003911 44 93 2.0 3.0 0.00 0.00 0.00 79 4093.2
20260510003408 45 98 2.0 2.0 0.00 0.00 0.00 80 4093.2
20260510002907 45 122 2.0 3.0 0.00 0.00 0.00 79 4093.2
20260510002404 46 15 1.0 2.0 0.00 0.00 0.00 75 4093.2
20260510001900 47 104 2.0 3.0 0.00 0.00 0.00 73 4093.2
20260510001358 47 345 3.0 8.0 0.00 0.00 0.00 71 4093.2
20260510000854 47 16 3.0 5.0 0.00 0.00 0.00 70 4092.8
20260510000351 47 11 6.0 9.0 0.00 0.00 0.00 71 4092.8
20260509235848 47 53 1.0 1.0 0.00 0.00 0.00 73 4092.5
20260509235344 47 355 1.0 1.0 0.00 0.00 0.00 74 4092.5
20260509234841 47 250 1.0 2.0 0.00 0.00 0.00 73 4092.5
20260509234337 47 52 2.0 2.0 0.00 0.00 0.00 78 4092.1
20260509233836 47 26 2.0 3.0 0.00 0.00 0.00 80 4092.1
20260509233333 47 112 1.0 2.0 0.00 0.00 0.00 80 4092.1
20260509232829 47 317 1.0 1.0 0.00 0.00 0.00 80 4092.1
20260509232327 47 41 2.0 3.0 0.00 0.00 0.00 79 4091.8
20260509231823 48 76 0.0 1.0 0.00 0.00 0.00 80 4092.1
20260509231319 49 352 0.0 1.0 0.00 0.00 0.00 78 4091.8
20260509230818 49 38 3.0 5.0 0.00 0.00 0.00 71 4091.5
20260509230314 50 341 5.0 8.0 0.00 0.00 0.00 70 4091.5
20260509225809 50 344 5.0 7.0 0.00 0.00 0.00 70 4091.1